Flag for U.S.A. Weather past 2 weeks in Las Cruces, New Mexico, U.S.A.

Now
64 °F

Clear.


Feels Like: 64 °F
Forecast: 49 / 80 °F
Wind: 6 mph from Southwest

Location: Las Cruces International

Current Time: Apr 20, 2015 at 9:50:01 PM

Latest Report: Apr 20, 2015 at 9:15 PM


Visibility: 10 mi

Pressure: 29.90 "Hg

Humidity: 18%

Dew point: 19 °F

Location of Las CrucesLocation

Historic Weather in Las Cruces — Graph

°F

Las Cruces temperature yesterday

Maximum temperature yesterday: 79 °F (at 3:35 PM)
Minimum temperature yesterday: 41 °F (at 6:55 AM)
Average temperature yesterday: 63 °F

Past Weeks' High & Low Weather Summary

 TemperatureHumidityPressure
High82 °F (Apr 7, 3:55 PM)95% (Apr 14, 6:55 AM)30.29 "Hg (Apr 14, 6:55 AM)
Low31 °F (Apr 17, 6:35 AM)6% (Apr 16, 5:55 PM)29.82 "Hg (Apr 15, 5:15 PM)
Average61 °F30%30.00 "Hg
* Reported Apr 5 8:15 PM — Apr 20 8:15 PM, Las Cruces, Weather by CustomWeather, © 2015

Note: Actual official high and low records may vary slightly from our data, if they occured in-between our weather recording intervals... More about our weather records

Advertising

Las Cruces weather history for previous 24 hours

 ConditionsComfort  
Time TempWeatherWind HumidityBarometerVisibility
8:15 PM
Mon, Apr 20
69 °FSunny.8 mph15%29.88 "Hg10 mi
7:55 PM71 °FSunny.8 mph14%29.88 "Hg10 mi
7:15 PM75 °FSunny.10 mph13%29.87 "Hg10 mi
6:55 PM76 °FSunny.6 mph12%29.86 "Hg10 mi
6:35 PM75 °FSunny.13 mph12%29.86 "Hg10 mi
6:15 PM78 °FSunny.8 mph11%29.86 "Hg10 mi
5:55 PM78 °FSunny.8 mph10%29.86 "Hg10 mi
5:15 PM78 °FSunny.9 mph10%29.86 "Hg10 mi
4:55 PM79 °FSunny.12 mph9%29.86 "Hg10 mi
4:35 PM80 °FSunny.8 mph9%29.86 "Hg10 mi
4:15 PM80 °FSunny.12 mph10%29.87 "Hg10 mi
3:55 PM76 °FSunny.9 mph12%29.88 "Hg10 mi
3:15 PM77 °FScattered clouds.14 mph12%29.90 "Hg10 mi
2:55 PM77 °FScattered clouds.7 mph13%29.91 "Hg10 mi
2:35 PM77 °FSunny.8 mph12%29.92 "Hg10 mi
2:15 PM78 °FSunny.9 mph13%29.93 "Hg10 mi
1:55 PM75 °FSunny.5 mph14%29.94 "Hg10 mi
1:35 PM74 °FSunny.3 mph14%29.95 "Hg10 mi
1:15 PM75 °FSunny.8 mph15%29.96 "Hg10 mi
12:55 PM75 °FSunny.7 mph17%29.97 "Hg10 mi
12:35 PM73 °FSunny.7 mph18%29.98 "Hg10 mi
12:15 PM72 °FSunny.6 mph20%29.99 "Hg10 mi
11:55 AM71 °FSunny.6 mph20%29.99 "Hg10 mi
11:35 AM70 °FSunny.7 mph21%30.00 "Hg10 mi
11:15 AM68 °FSunny.No wind23%30.01 "Hg10 mi
10:55 AM67 °FSunny.3 mph24%30.02 "Hg10 mi
10:15 AM65 °FSunny.3 mph26%30.02 "Hg10 mi
9:55 AM65 °FSunny.6 mph27%30.01 "Hg10 mi
9:35 AM63 °FSunny.3 mph30%30.01 "Hg10 mi
9:15 AM61 °FSunny.No wind33%30.01 "Hg10 mi
8:55 AM60 °FSunny.No wind34%30.01 "Hg10 mi
8:35 AM59 °FSunny.No wind33%30.01 "Hg10 mi
8:15 AM58 °FSunny.No wind34%30.01 "Hg10 mi
7:55 AM55 °FSunny.3 mph37%30.01 "Hg10 mi
7:35 AM52 °FSunny.3 mph41%30.00 "Hg10 mi
7:15 AM47 °FClear.3 mph49%30.00 "Hg10 mi
6:55 AM44 °FClear.No wind54%29.99 "Hg10 mi
6:35 AM44 °FClear.No wind53%29.99 "Hg10 mi
6:15 AM44 °FClear.No wind53%29.98 "Hg10 mi
5:55 AM43 °FClear.3 mph54%29.98 "Hg10 mi
5:35 AM44 °FClear.No wind52%29.98 "Hg10 mi
5:15 AM44 °FClear.No wind51%29.98 "Hg10 mi
4:55 AM46 °FClear.No wind49%29.98 "Hg10 mi
4:35 AM48 °FClear.3 mph47%29.98 "Hg10 mi
4:15 AM51 °FClear.No wind43%29.98 "Hg10 mi
3:55 AM55 °FClear.6 mph38%29.98 "Hg10 mi
3:35 AM55 °FClear.5 mph39%29.98 "Hg10 mi
3:15 AM55 °FClear.6 mph39%29.98 "Hg10 mi
2:55 AM56 °FClear.No wind37%29.99 "Hg10 mi
2:35 AM58 °FPassing clouds.7 mph35%29.99 "Hg10 mi
2:15 AM59 °FPassing clouds.6 mph33%29.99 "Hg10 mi
1:55 AM59 °FClear.7 mph32%29.99 "Hg10 mi
1:35 AM58 °FClear.5 mph30%30.00 "Hg10 mi
1:15 AM60 °FClear.6 mph27%29.99 "Hg10 mi
12:55 AM62 °FClear.7 mph25%29.99 "Hg10 mi
12:35 AM61 °FClear.6 mph25%29.99 "Hg10 mi
12:15 AM62 °FClear.9 mph25%29.99 "Hg10 mi
11:55 PM
Sun, Apr 19
63 °FClear.13 mph25%29.99 "Hg10 mi
11:15 PM62 °FClear.8 mph25%29.98 "Hg10 mi
10:55 PM61 °FPassing clouds.6 mph26%29.98 "Hg10 mi
10:35 PM64 °FClear.10 mph24%29.98 "Hg10 mi
10:15 PM63 °FClear.13 mph21%29.98 "Hg10 mi
9:55 PM63 °FClear.8 mph20%29.96 "Hg10 mi
9:15 PM65 °FClear.7 mph18%29.95 "Hg10 mi
Weather by CustomWeather, © 2015

See weather overviewHow to use our weather pages